Theta_e
309 312 315 314 318 322 321 319 314 315 315 312 314 316 316 314 312 312 313 312 308 308 313 309 308 310 307 303 301 300 300 299 299 298 298 298 298 298 298 298 298 298 297 296 296 297 297 297 296 296 296 296 295 295 295 295 294 294 294 294 294 294 294 294 294 293 293 293 293 293 293 293 293 293 293 292 292 292 291 291 290 290 289 289 288 287
310 312 319 318 317 318 318 318 314 311 310 311 312 311 313 313 312 311 310 312 310 308 313 309 308 309 303 300 300 299 300 299 298 298 297 297 297 297 297 297 297 297 296 295 295 296 296 296 296 295 295 295 294 293 293 293 292 292 291 291 291 291 291 291 291 292 292 292 292 292 292 292 292 292 292 291 291 291 290 290 289 289 289 288 288 287
315 316 320 318 313 312 313 313 312 312 310 310 312 310 312 314 314 313 310 312 311 309 313 310 307 305 301 300 300 299 299 298 298 298 297 297 297 297 297 297 297 296 296 296 294 294 295 296 296 295 294 294 294 293 293 292 292 291 291 290 291 290 290 290 290 290 290 290 290 290 290 290 290 290 290 290 290 290 289 289 289 288 288 287 287 287
319 320 316 313 311 309 310 311 311 312 313 313 311 310 314 313 311 315 313 311 311 308 309 309 307 305 302 300 299 299 299 298 298 297 297 297 297 297 296 296 297 297 297 297 296 294 294 296 295 295 295 294 294 294 293 293 292 292 291 291 291 291 291 291 290 290 290 289 289 289 289 289 289 289 289 289 289 289 289 288 288 288 287 287 286 286
319 316 308 308 311 308 309 312 312 310 315 321 316 310 315 313 308 312 313 310 311 309 305 308 310 306 303 301 300 299 299 298 298 297 297 297 297 297 297 297 297 297 298 298 298 295 293 295 295 295 295 295 294 294 293 293 292 292 292 292 292 292 291 291 291 290 290 290 290 290 290 289 289 289 288 288 288 288 288 288 288 287 287 286 286 286
315 309 306 311 312 310 310 311 313 311 312 320 319 312 313 311 307 309 310 309 310 309 305 306 311 308 304 302 300 299 299 298 298 297 297 297 297 297 297 297 297 298 298 297 297 295 294 294 295 295 295 294 294 294 294 293 292 292 292 292 292 291 291 291 291 290 290 290 289 289 289 289 289 288 288 288 288 288 287 287 287 287 286 286 286 286
309 307 308 313 314 314 313 311 311 311 311 312 314 312 310 308 307 307 307 307 310 310 305 304 309 308 304 301 300 299 299 298 298 297 297 297 297 297 297 298 298 299 299 298 296 293 293 294 294 293 293 293 293 294 294 293 292 292 292 292 292 291 291 291 291 290 290 290 289 289 289 289 288 288 288 289 289 288 287 287 287 286 286 286 285 285
308 309 310 312 316 314 312 311 308 311 314 311 309 308 308 306 306 306 305 305 309 310 308 307 307 308 306 301 299 299 299 299 298 298 297 297 297 297 298 298 299 299 300 300 298 294 292 293 292 292 292 292 291 292 293 293 292 292 292 291 291 291 291 291 291 290 290 290 290 289 289 289 289 288 288 289 289 288 288 287 287 286 286 285 285 285
308 309 310 310 314 312 310 310 306 307 309 310 308 306 305 304 304 305 305 307 307 307 311 310 305 308 308 301 300 300 299 299 298 298 298 297 297 297 297 298 298 298 297 296 295 293 291 291 292 291 291 291 290 291 292 292 291 290 290 290 290 290 290 290 290 290 290 290 289 289 289 289 289 288 288 288 288 288 288 287 287 286 286 285 285 284
307 306 308 307 308 309 310 308 305 306 305 306 305 305 307 306 305 305 305 308 309 308 313 312 306 308 308 300 301 302 299 299 298 297 298 297 297 297 297 297 296 295 294 291 290 290 290 291 291 290 290 289 289 289 289 288 288 288 288 289 289 289 289 289 289 289 289 288 288 288 288 288 288 288 288 288 287 287 287 287 286 286 286 285 285 285
308 306 306 307 306 305 306 305 305 306 304 303 305 307 310 309 308 309 308 308 310 313 316 312 306 307 307 301 300 301 300 300 299 297 297 297 297 296 295 295 294 293 292 291 289 289 290 290 290 289 288 288 287 287 287 287 287 287 287 287 288 288 288 288 288 287 287 287 287 287 287 287 287 287 287 287 287 287 287 287 286 286 286 286 286 285
311 308 307 307 305 304 304 303 304 305 306 307 309 308 307 308 308 310 313 310 309 314 314 308 305 306 306 302 299 299 300 300 300 299 297 297 296 295 293 293 292 291 291 290 290 289 289 289 288 288 287 287 286 286 286 286 286 286 286 287 287 287 287 287 286 286 286 287 287 286 286 286 286 286 286 286 286 287 287 286 286 286 286 285 285 285
313 309 308 306 304 303 304 305 307 308 309 310 311 310 311 313 309 310 316 311 309 314 308 303 304 305 303 301 300 299 298 298 298 298 298 297 295 294 293 292 291 291 290 290 290 289 288 288 287 287 286 286 286 286 286 286 286 286 286 286 286 286 285 285 285 286 286 286 286 285 285 285 285 285 285 285 286 286 286 286 286 286 285 285 285 285
313 311 307 307 306 303 302 305 307 307 308 307 308 311 314 312 308 312 315 308 307 311 304 301 304 303 301 300 300 299 297 296 295 296 297 296 294 293 292 292 291 290 290 290 289 288 287 287 286 286 286 285 285 285 285 285 285 285 285 285 285 285 285 285 285 285 285 285 285 284 284 284 284 284 284 285 285 285 285 286 286 286 285 285 285 285
310 311 307 306 305 304 304 303 302 304 306 306 306 307 309 309 306 310 313 309 308 310 306 303 302 302 302 300 298 297 295 294 294 294 294 294 293 292 291 291 291 290 289 289 288 287 286 286 286 285 285 285 284 284 284 284 284 284 284 284 284 284 284 283 283 283 284 284 284 283 283 283 283 283 284 284 284 284 285 285 285 285 285 285 285 285
307 309 306 303 301 302 305 303 301 302 304 304 304 306 309 310 308 308 311 309 307 308 308 305 301 300 301 299 297 295 294 293 293 292 293 293 292 291 290 291 290 289 289 289 287 286 286 285 285 284 284 284 283 283 283 283 283 283 282 282 282 281 281 281 282 282 283 283 282 282 282 282 282 282 282 283 283 284 284 284 284 284 285 285 285 285
306 307 307 303 301 301 301 301 302 302 303 303 303 306 306 304 305 307 308 306 304 306 306 303 301 300 299 298 296 293 292 292 292 292 292 292 291 290 290 290 289 288 288 288 287 285 285 285 284 283 283 283 282 282 281 281 280 280 280 280 280 280 280 281 281 281 280 280 280 280 280 280 279 279 280 281 282 283 283 283 284 284 284 284 283 283
303 307 309 304 303 302 298 300 303 301 301 303 305 306 303 301 306 307 307 308 308 308 308 305 302 301 301 300 295 292 292 291 291 291 291 290 290 289 288 288 287 288 288 287 286 285 284 284 283 282 282 281 281 280 279 279 278 278 279 279 279 280 279 279 279 278 278 277 277 278 278 278 278 278 278 279 281 282 282 281 281 281 281 281 281 281
302 305 309 303 302 303 299 300 304 303 301 301 302 302 300 302 308 307 306 309 309 307 309 305 301 299 300 299 294 291 291 290 289 290 289 289 288 288 287 287 286 287 287 286 285 284 283 282 282 281 280 280 279 278 278 278 278 278 278 278 278 278 277 277 277 277 276 276 276 276 276 276 275 276 277 278 279 279 279 278 278 278 278 278 278 279
302 303 306 304 301 300 301 303 305 307 304 302 304 304 303 304 307 306 305 306 307 307 307 306 303 299 296 295 293 291 290 289 288 288 288 288 287 287 287 286 285 286 286 284 284 283 282 281 281 280 279 278 278 277 277 277 277 277 276 276 276 276 275 276 276 275 275 275 275 274 274 273 273 274 276 277 277 276 276 276 276 276 277 277 278 278
303 303 305 307 303 300 302 303 303 305 303 305 309 306 304 306 306 304 302 302 305 308 307 308 306 298 293 293 292 290 289 288 288 287 287 287 287 287 286 285 285 285 285 283 283 282 281 280 280 279 278 278 277 277 276 276 276 276 275 275 274 274 275 275 274 274 274 274 273 272 272 272 272 274 275 275 274 274 274 273 273 273 273 275 277 278
302 303 304 307 305 304 305 300 300 302 300 303 308 303 301 304 305 305 304 303 304 305 305 307 305 297 292 291 290 289 288 288 287 287 286 287 287 286 285 284 285 285 283 282 281 281 280 279 279 278 277 277 277 276 276 276 275 275 274 274 273 274 274 273 273 273 273 272 271 270 271 271 272 273 274 273 273 272 271 271 271 271 271 273 275 276
300 302 302 305 303 302 302 299 297 298 298 300 303 301 302 305 305 306 308 306 303 302 302 303 304 297 291 289 289 289 289 287 286 286 286 286 286 285 284 284 284 284 282 281 280 280 279 279 278 277 277 277 276 275 275 275 274 274 273 273 273 272 272 272 272 272 271 270 270 270 270 271 272 273 272 271 270 270 269 269 269 269 270 271 274 276
298 300 302 306 308 304 302 300 298 298 299 300 300 300 303 303 302 304 305 304 303 302 301 301 303 296 290 288 288 287 288 287 286 286 286 286 285 284 283 283 283 282 281 280 280 279 278 278 277 277 276 276 275 275 274 274 273 273 272 272 272 271 271 271 271 271 270 269 269 269 270 271 271 271 270 269 268 268 267 267 268 269 270 272 274 275
298 301 302 305 311 310 308 306 305 303 301 300 300 300 300 299 300 301 300 301 301 299 298 301 303 297 290 288 287 286 286 285 285 285 285 285 284 283 283 283 282 281 280 279 279 278 278 277 277 276 276 275 274 274 274 273 272 271 271 271 271 270 271 271 270 269 269 268 268 270 271 271 270 268 267 267 266 266 266 267 268 269 271 273 274 274
298 301 302 303 306 307 307 307 306 304 301 300 299 299 299 300 299 298 299 302 302 298 296 300 301 296 290 287 286 285 285 284 284 284 285 284 283 282 282 282 281 280 279 278 278 277 277 276 276 276 275 274 273 273 273 272 271 271 270 270 270 270 270 269 269 268 268 268 269 270 270 268 267 266 266 265 265 265 266 267 268 270 272 273 273 272
301 301 301 305 308 306 306 303 301 301 300 299 297 295 297 298 297 298 301 300 298 297 298 298 295 293 290 286 285 285 284 284 284 283 284 283 282 282 282 281 280 279 278 278 277 276 276 276 275 274 273 273 273 272 271 271 270 270 269 269 269 269 269 268 268 267 267 267 269 269 267 266 265 265 265 265 265 265 266 267 269 270 271 272 271 271
303 302 299 302 305 304 303 300 297 297 296 294 294 293 293 294 295 297 297 294 293 296 299 296 292 292 290 285 284 285 284 283 283 283 284 283 281 281 281 280 279 278 278 277 276 276 275 275 274 273 272 272 272 271 270 270 270 269 268 269 269 269 268 267 267 266 266 267 267 266 265 265 264 264 264 264 264 265 266 267 268 268 269 268 268 269
302 302 298 299 302 301 299 296 294 292 291 291 292 291 291 292 293 293 292 291 292 295 295 292 291 291 288 284 284 284 284 283 283 283 283 282 281 280 279 278 278 277 277 276 275 275 274 273 273 272 272 271 271 270 270 269 269 268 268 268 268 267 267 266 266 265 265 266 265 264 264 263 263 263 263 263 264 265 266 266 266 266 265 265 265 265
299 302 300 299 302 300 295 294 292 291 291 290 290 290 290 290 291 291 291 291 292 293 292 289 289 289 286 284 284 284 284 283 282 282 282 280 280 279 278 277 276 276 276 275 274 274 273 272 272 271 271 271 270 270 269 269 268 267 267 267 266 266 266 265 265 265 265 264 263 263 263 262 262 262 263 263 264 264 264 263 263 263 263 263 263 263
297 300 300 300 303 300 294 292 292 290 291 290 289 290 290 290 290 291 291 291 292 293 290 287 288 288 286 284 284 283 283 282 281 281 280 280 279 278 276 276 275 275 275 274 274 273 272 272 271 271 270 270 270 269 268 268 267 267 266 266 265 265 265 264 264 264 264 263 262 262 262 262 262 262 263 263 262 262 261 261 261 261 261 261 262 263
299 300 302 302 303 301 295 293 292 290 291 293 291 290 290 290 290 290 290 289 290 290 288 287 288 287 285 284 283 282 282 281 280 279 279 279 277 276 275 274 274 274 274 273 273 272 272 271 270 270 270 269 269 268 267 267 266 266 265 265 265 264 264 263 263 263 262 262 261 261 261 261 261 262 262 261 260 260 260 260 260 260 261 261 262 263
299 300 301 301 302 302 297 294 293 293 296 297 292 289 289 289 288 289 288 286 286 287 287 287 286 285 284 282 281 281 280 280 279 278 278 277 275 275 275 274 274 274 273 272 272 271 271 270 270 270 269 268 268 267 267 266 265 265 265 264 264 263 263 263 262 262 261 261 261 261 261 261 261 260 260 259 259 259 259 259 260 260 261 261 261 261
299 299 299 298 300 304 301 295 294 298 301 296 290 287 289 289 288 288 288 286 285 285 285 285 284 283 282 281 280 280 280 279 278 278 277 276 274 274 274 273 273 273 272 272 272 271 270 270 269 269 268 267 267 266 266 265 265 264 264 264 263 263 262 262 261 261 261 261 261 260 260 260 259 259 259 258 258 258 258 259 259 259 260 259 259 259
299 299 299 298 299 302 302 298 298 301 298 291 288 287 288 288 288 287 287 285 284 284 283 283 282 282 281 280 280 279 279 278 277 277 277 275 274 274 273 273 273 272 271 271 271 270 269 269 269 268 267 267 266 265 265 264 264 264 263 263 262 262 261 261 260 260 260 260 260 260 259 259 258 258 258 258 258 258 258 258 258 258 258 258 258 258
298 299 299 299 299 299 299 300 298 295 292 289 288 288 286 288 289 287 286 285 283 282 282 281 281 281 280 280 279 278 278 277 276 277 276 274 274 274 273 273 272 271 271 271 270 269 269 268 268 267 266 266 265 264 264 264 263 263 262 262 261 261 261 260 260 260 260 260 260 259 258 258 257 257 257 257 257 257 257 257 257 257 257 257 257 257
298 300 298 298 298 296 297 299 296 293 291 290 289 287 285 286 287 287 287 285 282 281 281 280 280 280 279 279 278 277 276 276 276 277 276 274 274 273 273 272 272 271 270 270 269 269 268 268 267 266 265 265 264 264 264 263 263 262 262 261 261 260 260 260 260 260 259 259 259 258 258 257 257 256 256 256 256 256 256 256 256 256 256 256 257 257
293 297 298 298 297 296 297 298 297 297 295 290 286 285 284 285 285 285 287 286 282 280 280 279 279 279 278 278 277 276 276 275 275 276 275 274 273 273 272 272 271 270 270 269 268 268 267 267 266 265 264 264 263 263 263 263 262 261 261 260 260 260 259 259 259 259 259 258 258 257 257 256 256 256 256 256 256 256 256 256 256 256 256 256 257 257
292 293 296 298 296 296 297 296 297 299 295 287 284 284 284 284 284 284 286 286 282 280 279 279 278 278 277 277 276 275 275 274 274 275 274 273 273 272 271 271 270 270 269 268 268 267 267 266 265 264 264 263 263 263 262 262 261 261 260 260 259 259 259 259 259 258 258 258 257 256 256 256 256 256 255 255 255 255 255 256 256 256 256 256 257 257
295 294 294 295 295 294 295 294 294 294 290 285 283 284 284 284 284 285 288 287 281 279 279 278 277 277 277 276 275 275 275 274 274 274 273 273 272 271 271 270 270 269 268 267 267 266 266 265 264 264 263 263 263 262 262 261 261 260 260 259 259 259 259 259 258 258 257 257 256 256 256 255 255 255 255 255 255 255 255 255 256 256 256 256 257 257
294 293 292 292 293 294 294 293 292 290 287 284 283 283 283 284 285 287 287 284 279 279 279 277 277 277 276 275 275 274 274 274 273 273 273 272 271 270 270 269 269 268 267 267 266 266 265 264 263 263 263 262 262 262 261 261 260 259 259 259 259 259 258 258 258 257 256 256 255 255 255 255 255 255 254 255 255 255 255 256 256 256 256 257 257 257
291 291 291 291 292 291 291 292 292 290 286 282 283 283 283 284 286 285 283 280 279 279 278 277 277 276 275 274 274 273 273 273 272 272 271 271 270 269 269 269 268 267 266 266 266 265 264 263 263 262 262 262 262 261 261 260 259 259 259 258 258 258 258 257 257 256 256 255 255 255 255 254 254 254 254 255 255 255 255 256 256 257 257 257 258 258
288 290 292 291 289 289 291 292 292 291 286 283 283 283 282 282 283 281 279 279 279 278 277 276 276 275 274 273 272 272 272 271 271 271 270 269 269 269 269 268 267 266 266 265 265 264 263 263 262 262 261 261 261 261 260 259 259 259 258 258 258 258 257 256 256 255 255 255 254 254 254 254 254 254 254 255 255 255 256 256 257 257 257 257 258 258
287 288 291 290 289 290 292 291 289 287 284 282 282 281 280 279 279 278 278 277 277 277 276 275 274 273 273 272 271 271 271 270 270 269 269 269 268 268 268 267 266 266 265 265 264 263 263 262 262 261 261 261 260 260 259 259 259 258 258 258 258 257 256 256 255 255 254 254 254 254 254 254 254 254 255 255 255 256 256 256 257 257 257 258 258 258
287 286 286 288 288 288 289 288 287 285 283 282 280 279 278 278 278 278 277 276 276 276 275 273 273 272 272 271 271 270 270 270 269 268 268 268 268 268 267 266 265 265 265 264 263 263 262 261 261 261 261 260 260 259 259 258 258 258 258 257 257 256 256 255 255 254 254 254 254 254 254 254 254 254 255 255 256 256 256 257 257 257 257 258 258 258
285 284 285 287 286 285 285 285 285 283 283 281 280 278 278 278 277 276 276 276 275 274 273 273 272 271 271 271 270 270 269 269 268 268 267 267 267 267 266 265 265 264 264 263 263 262 261 261 261 260 260 260 259 259 258 258 258 258 257 257 256 256 255 255 254 254 254 254 253 253 254 254 254 255 255 256 256 256 257 257 257 257 257 258 258 259
284 284 285 285 284 284 285 285 283 282 282 281 279 278 277 277 277 276 275 275 274 273 273 272 272 271 271 270 269 269 269 268 267 267 267 267 266 265 265 265 264 264 263 263 262 261 261 261 260 260 260 259 259 258 258 258 258 257 257 256 255 255 255 254 254 254 253 253 253 253 254 254 254 255 255 256 256 256 257 257 257 257 257 258 258 259
285 285 285 284 283 284 285 284 282 281 281 281 279 277 276 276 276 275 275 274 273 273 272 271 271 270 270 269 269 268 268 267 267 266 266 266 265 265 264 264 263 263 262 262 261 261 260 260 260 260 259 258 258 258 258 257 257 257 256 256 255 254 254 254 253 253 253 253 253 253 254 254 255 255 256 256 256 256 257 257 257 257 258 258 259 259
284 285 284 283 282 282 283 282 281 280 281 281 279 276 276 276 275 274 274 273 272 272 271 270 270 269 269 269 268 268 267 267 266 266 265 264 264 264 264 263 263 262 262 261 261 260 260 260 260 259 258 258 258 258 257 257 257 256 256 255 255 254 254 253 253 253 253 253 253 253 254 254 255 255 256 256 256 256 256 257 257 257 258 258 259 260
284 284 283 282 282 282 282 281 280 279 280 280 278 276 275 275 274 273 272 271 271 271 270 269 269 269 268 268 268 267 266 266 265 265 264 264 263 263 263 262 262 261 261 260 260 260 260 259 259 258 258 258 257 257 257 257 256 256 255 254 254 254 253 253 253 253 253 253 253 253 254 254 255 255 256 256 256 256 257 257 257 258 258 259 259 260
283 282 282 282 282 282 282 280 278 278 278 277 276 275 274 273 272 272 271 270 270 270 269 268 268 267 267 267 267 267 266 265 264 264 263 263 263 263 262 261 261 261 260 260 259 259 259 259 258 258 257 257 257 257 257 256 256 255 255 254 254 253 253 253 252 252 252 252 253 253 254 254 255 255 256 256 256 256 256 257 257 257 258 259 259 260
Wind_Speed
2 2 2 4 6 7 6 7 8 7 5 2 3 4 5 6 6 5 4 5 1 2 4 3 2 6 8 9 9 7 8 11 9 10 10 9 10 10 12 12 12 11 8 15 24 25 26 25 23 22 21 19 20 19 18 17 16 15 14 13 13 13 13 14 14 15 15 16 18 20 21 24 26 27 28 28 29 30 30 30 30 31 32 32 32 33
3 1 6 8 9 8 6 6 5 5 4 2 4 5 5 4 6 5 2 5 3 2 3 3 5 6 7 8 9 8 10 10 8 10 11 10 11 9 11 12 10 8 8 15 20 21 23 23 22 22 20 19 19 18 17 17 16 15 15 15 15 15 15 15 15 15 16 16 17 19 21 23 25 25 26 27 27 27 27 28 28 30 30 31 32 33
2 4 9 8 5 5 3 2 3 1 2 2 1 2 4 3 4 5 2 4 4 2 2 4 6 5 7 8 9 10 9 7 7 10 9 10 12 10 10 10 9 9 8 10 12 16 20 19 19 19 18 18 16 15 15 15 15 15 16 17 17 18 19 19 18 17 17 17 17 18 20 21 22 23 24 25 26 26 27 27 27 27 28 30 31 32
1 5 7 3 4 4 1 1 4 3 2 2 2 2 4 3 1 3 3 4 3 0 2 3 5 3 5 8 9 9 7 8 8 10 10 9 10 9 9 8 9 9 8 7 8 11 15 16 16 16 15 14 13 11 11 12 13 14 15 17 18 19 19 20 20 19 18 18 18 19 19 20 21 22 23 24 25 25 26 26 26 26 27 28 29 31
5 4 1 3 4 3 2 3 3 1 3 3 5 4 4 4 2 4 3 5 4 3 1 3 5 3 4 6 7 6 6 8 8 10 11 9 8 9 9 9 8 7 7 7 6 7 11 13 14 14 13 12 11 10 9 9 11 12 13 16 18 18 18 18 18 18 17 17 19 19 21 22 22 22 22 23 25 25 25 26 26 26 26 27 27 28
6 4 1 3 4 4 2 2 1 4 2 4 4 6 6 4 2 1 4 5 4 3 2 3 4 2 3 5 4 5 6 8 7 9 10 8 8 9 9 8 7 6 5 5 6 7 10 13 15 17 15 15 14 10 7 8 10 12 14 16 18 18 18 19 18 18 16 16 17 18 19 20 20 20 21 22 24 24 24 25 25 25 25 25 26 26
3 3 4 4 4 6 4 2 3 4 3 3 4 4 5 4 2 3 4 3 1 2 2 3 3 2 2 4 3 3 7 8 7 8 8 7 7 7 7 6 6 6 6 5 7 9 13 16 19 22 22 22 22 15 7 8 11 15 17 19 20 21 22 22 21 20 18 18 17 17 17 17 17 19 21 24 25 24 24 24 24 25 24 24 25 25
0 4 5 5 5 4 2 2 3 5 5 3 3 4 5 1 2 1 2 1 2 2 3 2 4 3 0 2 1 3 8 8 7 7 6 6 6 6 6 5 6 6 5 6 7 10 16 19 21 25 27 28 29 19 9 10 16 19 20 21 22 23 24 24 23 22 21 20 19 19 19 19 20 21 25 27 26 25 25 25 24 25 25 24 24 25
0 2 1 3 4 2 2 4 4 5 2 4 4 3 2 1 2 3 4 2 1 2 4 4 3 3 1 3 2 2 7 6 5 5 5 5 6 6 6 6 6 6 7 8 8 12 18 21 24 27 28 30 32 25 16 18 23 25 25 25 25 25 25 24 23 23 22 22 22 22 23 23 24 26 28 30 29 27 26 26 25 24 25 24 23 23
1 1 3 4 1 2 4 5 4 4 1 3 3 3 2 3 2 2 4 3 2 3 2 4 1 2 1 1 1 2 5 4 3 3 3 4 5 6 6 7 7 8 9 10 13 17 20 23 25 28 29 31 34 33 30 29 31 31 31 30 29 29 29 28 28 28 27 27 27 27 26 26 27 29 30 31 31 30 29 28 26 25 25 24 23 23
3 2 1 3 1 3 3 3 2 3 3 1 3 2 4 5 4 3 2 3 4 2 5 5 2 3 2 0 1 1 1 4 4 3 3 4 6 7 7 7 8 8 9 9 13 18 22 24 26 28 29 30 33 35 35 34 34 33 32 31 31 31 32 32 33 33 33 33 33 32 32 31 31 32 32 32 31 31 31 30 29 28 26 25 24 24
4 3 1 1 1 1 1 2 1 2 2 3 3 3 3 3 3 4 4 4 3 3 5 4 3 3 3 0 2 3 2 3 4 5 5 5 7 8 8 8 8 8 9 9 10 14 20 22 24 26 27 28 31 32 32 32 32 31 31 31 31 32 33 35 35 36 36 35 35 35 35 36 36 36 35 34 33 33 32 32 32 31 29 28 27 27
3 1 3 3 2 1 2 2 3 4 5 4 3 4 3 3 4 3 3 1 1 4 3 1 0 3 2 2 4 2 3 2 1 3 5 6 7 8 7 7 7 8 10 10 9 11 16 19 20 23 24 25 27 29 30 30 29 29 30 31 31 32 33 35 35 35 35 34 34 35 36 37 37 37 37 36 36 35 34 34 34 33 32 31 31 30
4 4 4 2 2 1 3 2 2 3 4 4 2 3 3 2 2 2 3 1 2 4 3 2 2 3 1 1 2 2 6 5 6 6 5 6 8 7 7 7 8 10 11 10 9 10 14 17 19 21 23 25 27 28 30 30 29 30 31 32 32 33 33 34 34 34 34 33 33 35 36 36 36 36 37 37 37 37 37 36 35 35 35 34 35 34
1 3 2 1 1 2 3 2 3 2 2 2 2 4 3 3 3 3 3 2 2 4 4 4 3 2 3 3 3 3 5 6 7 7 6 7 7 7 8 8 9 11 10 8 8 11 15 18 20 22 24 26 28 29 30 31 31 32 33 33 33 34 34 35 35 35 34 33 34 35 36 35 35 36 36 37 37 38 38 38 37 36 36 36 37 38
1 4 4 1 1 2 2 1 2 3 1 2 1 3 1 3 3 2 3 4 3 1 3 2 2 1 3 6 5 5 7 9 9 9 9 9 9 10 10 9 9 9 9 7 7 10 16 19 21 24 25 26 27 28 30 31 32 32 33 33 34 34 35 36 36 35 34 33 34 35 35 35 36 37 38 38 38 39 39 39 38 37 37 38 39 40
1 4 5 3 2 1 2 1 1 1 0 0 1 1 2 3 5 2 1 1 3 2 2 1 3 1 3 5 4 7 9 9 9 10 10 9 9 10 8 8 8 8 7 7 7 10 15 19 22 24 25 25 27 27 29 32 32 33 34 35 36 36 35 36 35 35 35 36 37 37 37 38 39 40 40 39 39 39 38 37 35 35 35 35 36 37
1 4 5 1 1 1 1 1 3 1 1 2 1 3 1 2 4 3 1 3 4 1 2 1 5 4 3 3 3 8 9 8 8 8 8 7 8 8 7 8 9 8 6 7 9 12 16 18 21 22 23 25 27 29 31 33 34 34 35 37 37 36 36 38 38 37 37 39 39 39 38 39 40 41 42 41 39 37 36 36 35 35 36 36 36 37
1 2 6 1 1 3 2 2 3 4 1 2 2 2 1 2 0 1 1 0 1 1 3 3 2 3 2 1 2 7 8 8 8 7 8 8 9 8 8 10 11 9 6 7 8 10 15 18 20 21 24 26 29 31 33 35 36 36 37 38 36 36 39 41 39 37 39 40 39 37 38 40 41 42 42 39 37 36 36 37 38 39 40 41 41 40
1 1 4 4 1 2 3 3 2 4 4 3 2 2 2 3 3 1 1 2 2 1 2 2 2 1 1 1 3 6 6 7 8 9 9 9 10 9 9 11 13 9 8 8 7 10 15 18 19 22 26 29 31 33 36 38 37 36 38 38 37 38 40 38 36 39 41 39 36 37 41 43 44 42 39 37 38 39 38 38 39 41 42 42 41 39
2 1 3 5 3 2 2 1 1 2 2 2 3 3 3 1 0 0 1 1 3 2 3 1 2 1 2 2 4 6 6 7 8 9 8 8 9 9 10 12 11 7 8 8 7 11 15 18 21 25 29 32 33 34 37 36 34 34 37 37 37 38 37 36 39 40 38 36 38 43 46 45 43 39 37 38 39 40 40 42 44 45 46 45 41 39
1 1 2 4 4 2 3 3 2 3 2 2 2 1 1 1 1 0 2 2 2 2 3 3 2 2 3 3 4 6 6 7 9 8 8 8 8 9 11 12 9 6 7 8 9 13 17 20 25 28 30 31 30 32 34 33 31 34 36 37 38 37 36 38 40 37 36 39 44 46 45 42 40 36 35 36 37 40 43 48 52 55 52 47 43 41
0 2 0 4 4 4 6 4 2 2 1 2 2 1 2 1 2 4 2 3 1 1 2 2 1 2 3 4 5 6 5 5 7 7 8 8 8 10 11 10 7 6 7 10 13 16 19 22 25 26 27 27 27 30 32 31 31 34 36 37 36 36 37 37 35 34 38 43 45 45 42 39 36 33 33 36 40 43 47 51 56 56 50 45 42 40
1 2 1 4 4 4 5 3 3 2 2 3 2 3 2 2 2 5 4 3 1 2 0 1 1 2 2 3 6 6 5 5 6 8 8 7 7 8 9 6 7 8 9 11 14 16 19 22 23 23 23 24 26 29 30 29 31 34 36 36 35 37 37 35 34 38 41 44 46 45 40 35 32 33 37 42 45 48 51 52 51 49 45 41 37 34
2 0 2 3 4 5 6 5 5 4 3 2 2 3 3 4 4 2 1 2 1 2 2 2 3 2 3 3 5 5 5 3 4 6 6 5 8 9 7 6 7 9 9 10 11 14 17 20 20 19 20 24 27 29 29 31 33 35 35 35 36 38 36 34 37 40 42 45 46 41 34 32 34 39 44 48 49 50 50 48 47 46 42 35 31 33
1 1 2 2 0 1 2 3 3 3 3 2 3 6 5 5 5 1 1 3 1 2 2 2 3 2 2 2 3 4 7 7 7 10 9 8 11 11 7 6 7 8 9 10 10 12 16 17 17 19 23 27 29 29 30 34 35 35 35 37 37 36 34 36 39 39 41 43 39 33 31 33 38 43 46 47 48 48 47 46 46 43 35 29 31 35
1 0 1 4 5 4 4 4 4 1 2 2 4 8 7 5 5 4 4 2 1 1 3 2 2 2 1 4 8 10 12 13 12 14 12 10 12 10 5 6 7 7 9 10 11 13 15 15 18 23 27 30 30 29 32 34 34 34 37 38 37 33 33 36 37 37 39 37 31 29 32 36 40 42 41 41 42 44 46 44 41 37 32 30 33 35
3 2 1 2 4 5 5 3 2 4 4 4 4 7 8 7 8 9 5 1 1 3 3 4 3 5 4 5 9 11 11 11 11 12 11 10 11 8 5 7 9 10 10 11 13 14 13 15 19 25 29 30 30 31 33 33 32 33 35 35 34 33 33 34 34 35 35 32 31 32 35 39 40 39 38 39 41 42 41 37 35 34 33 33 35 36
4 1 1 1 3 6 4 1 7 9 7 6 6 6 7 8 9 8 3 0 3 3 3 4 6 5 2 5 9 10 10 9 10 10 9 11 10 7 7 10 11 12 13 13 14 12 11 15 20 25 28 29 29 31 33 32 32 32 31 30 31 32 33 34 35 36 34 32 33 36 38 39 38 37 39 40 38 35 33 34 35 36 37 38 40 41
3 1 2 1 2 6 6 4 8 10 8 7 7 6 5 6 6 5 1 1 1 1 1 4 6 3 1 6 9 8 7 8 9 9 10 11 9 8 10 12 13 14 14 14 14 12 13 18 22 25 27 27 28 30 31 32 33 32 31 30 31 32 33 35 37 35 34 35 36 37 38 38 38 40 39 35 32 34 36 38 39 40 43 46 45 45
2 2 2 3 3 5 5 6 7 8 9 9 7 6 6 7 6 5 3 3 3 2 3 5 4 3 1 6 9 7 6 8 9 11 12 10 8 10 12 13 15 16 14 14 13 12 15 20 22 25 27 27 29 31 31 33 35 33 31 31 32 34 35 37 36 35 36 38 39 38 38 39 40 38 34 32 36 40 41 41 41 43 45 47 46 44
3 2 3 5 4 3 1 5 5 6 8 9 8 8 7 8 7 4 2 3 2 2 4 5 4 4 4 7 8 6 7 9 11 13 13 9 8 10 12 15 17 16 15 15 14 13 16 21 23 26 28 30 32 33 33 35 36 34 33 34 35 37 38 38 37 37 39 40 40 39 39 39 37 34 34 38 40 41 41 42 44 44 43 42 40 37
2 2 2 3 2 3 2 2 4 3 3 3 5 6 3 4 6 5 1 3 3 1 2 4 4 5 7 9 11 11 11 10 11 13 11 7 8 10 12 15 16 15 15 16 15 14 18 23 25 26 28 31 33 33 34 35 34 33 35 37 39 40 40 40 39 39 40 40 40 39 37 36 35 35 38 40 40 41 42 43 42 40 39 37 36 37
2 3 0 1 1 3 5 2 2 3 2 4 0 5 3 3 8 9 2 3 4 3 1 3 5 7 9 9 11 13 12 10 11 11 6 5 9 11 14 15 13 12 14 15 14 16 22 25 26 27 29 30 32 33 34 34 33 34 36 37 40 41 40 40 40 40 40 40 38 37 36 35 36 38 40 41 41 42 41 40 39 38 37 38 39 41
3 3 0 1 2 3 3 5 4 1 3 5 3 7 6 1 5 8 0 4 4 3 3 5 7 7 9 8 9 11 11 10 12 9 2 7 11 12 14 14 11 11 13 12 14 20 25 26 26 28 31 31 33 35 35 34 34 36 37 38 39 39 39 39 40 40 39 37 36 36 36 37 39 40 41 41 41 40 39 39 39 39 40 41 42 43
2 2 1 1 2 1 3 4 1 2 1 1 1 7 8 3 6 8 2 2 2 4 5 7 8 8 9 9 9 9 10 12 10 5 2 10 13 12 12 12 11 13 14 15 18 24 27 27 27 29 31 33 35 35 35 35 37 38 39 39 38 38 38 40 40 38 36 34 35 37 37 39 41 41 41 41 41 40 40 40 40 41 42 43 43 41
3 3 2 2 1 2 1 2 2 1 2 3 3 6 6 3 5 7 4 2 2 4 6 7 8 10 11 11 10 11 12 13 7 1 4 11 13 13 13 13 15 18 20 22 25 27 27 27 28 29 31 34 35 35 35 37 38 38 39 38 38 38 40 40 38 35 34 35 37 39 40 41 42 42 42 42 43 43 42 42 43 44 44 43 41 39
5 4 3 2 1 2 2 2 3 2 2 1 2 6 7 5 6 5 4 2 3 6 6 7 9 11 12 11 12 11 12 11 7 2 4 9 12 15 15 16 20 22 23 27 29 28 27 28 29 31 33 35 35 35 35 36 37 37 37 36 37 39 40 37 35 35 35 38 40 42 42 42 43 43 43 43 44 45 45 45 45 45 43 41 41 40
8 5 4 4 3 3 3 1 1 3 3 1 4 8 8 7 7 3 1 2 3 7 7 7 9 11 10 10 11 9 8 9 10 8 8 11 16 17 17 18 22 23 25 28 30 28 28 29 30 33 35 35 36 36 35 36 36 36 35 35 36 37 36 34 34 36 39 42 44 45 44 43 43 42 42 44 45 45 45 44 44 44 43 42 41 40
7 5 5 5 3 1 1 0 2 2 2 1 6 8 8 8 4 4 2 4 4 7 8 8 9 10 9 8 8 7 6 7 9 11 14 18 21 22 21 21 22 24 27 30 29 28 28 28 29 32 34 35 37 38 37 37 37 36 35 35 34 33 32 33 35 38 42 45 46 45 44 44 43 43 43 43 43 43 43 43 43 44 43 42 41 40
4 3 3 4 3 2 1 1 3 2 1 4 8 8 8 7 3 2 3 5 6 9 9 8 9 9 8 8 7 5 5 7 10 13 17 21 21 22 25 24 23 25 29 29 29 29 29 29 30 30 32 34 36 37 37 38 38 37 36 36 34 33 33 35 38 41 43 44 44 44 44 44 44 44 44 43 42 42 42 42 42 42 42 42 41 40
3 3 3 2 2 2 0 1 4 3 1 4 9 7 5 5 2 2 4 6 8 9 7 7 8 8 8 8 7 6 8 11 12 12 15 18 18 20 24 24 25 28 30 29 28 29 30 31 32 32 33 34 34 35 36 37 36 35 35 35 34 35 37 39 41 44 44 43 43 43 44 45 45 44 43 42 41 41 42 42 41 40 40 40 39 38
1 1 3 2 1 1 2 2 3 3 2 5 7 5 3 3 2 4 6 6 7 7 7 7 7 7 8 9 8 9 10 11 11 11 13 16 18 20 22 23 26 28 29 28 28 29 31 31 32 33 35 35 34 35 36 37 36 34 34 35 36 38 41 42 44 45 44 44 44 44 44 45 45 43 41 41 40 39 40 41 40 39 39 38 36 35
1 2 1 3 0 2 1 1 1 1 2 5 5 2 2 2 2 4 5 5 4 5 6 6 5 7 8 9 10 11 11 10 11 11 12 15 17 19 21 24 27 28 27 27 28 30 32 32 33 34 34 33 33 36 37 35 34 34 35 36 38 41 44 45 45 45 45 45 45 45 45 45 44 42 40 39 39 39 38 38 38 38 38 36 33 31
0 1 2 3 1 1 3 4 1 1 2 4 3 3 1 2 1 1 3 4 5 5 5 5 6 7 8 9 11 11 10 10 12 12 13 14 17 19 21 24 26 26 27 28 29 30 32 33 33 34 33 33 35 37 36 35 33 35 37 39 40 42 45 46 45 45 45 45 45 45 45 45 43 41 39 38 38 38 37 36 37 37 35 34 31 29
1 2 0 2 3 3 3 2 2 2 3 2 3 3 2 1 0 2 3 4 5 5 5 6 7 8 9 10 10 10 9 10 11 12 14 16 17 20 22 23 24 25 26 28 29 32 34 34 33 33 34 36 38 37 36 35 33 34 37 39 41 43 45 45 45 45 44 44 44 45 44 43 42 40 40 40 39 37 36 35 35 35 33 31 29 28
2 3 3 2 3 3 1 0 2 5 7 3 3 2 4 3 3 4 5 4 5 6 7 9 9 11 12 11 9 9 9 10 11 12 16 18 19 20 21 22 23 25 26 28 30 33 35 33 32 32 34 37 39 38 37 36 35 35 37 39 42 44 44 43 44 45 44 43 43 43 42 40 38 39 40 40 39 36 36 37 35 33 32 30 28 28
2 2 2 2 2 3 4 3 5 8 8 2 4 4 6 4 4 5 6 6 8 9 9 10 11 13 12 11 10 10 9 10 11 12 14 17 19 19 21 23 24 26 28 30 32 34 33 31 31 32 34 36 38 38 37 37 37 38 39 41 43 44 44 43 44 44 43 42 41 41 39 37 36 37 39 40 37 35 35 36 35 33 31 29 28 27
2 2 1 2 3 4 5 5 7 8 7 1 4 6 6 4 4 5 6 7 8 9 9 10 12 13 12 13 15 12 9 10 14 14 15 17 19 20 22 25 26 27 30 32 33 32 32 30 31 33 35 37 37 37 38 38 38 39 40 42 43 44 44 45 45 43 41 40 40 39 38 36 36 36 37 38 38 37 34 32 31 31 31 30 28 27
2 1 1 2 3 3 4 4 5 5 5 3 6 7 5 5 5 5 5 7 8 9 10 10 11 13 13 14 15 13 10 12 16 17 17 18 19 22 24 26 27 29 32 33 33 32 31 30 31 33 35 36 36 37 38 39 39 40 41 42 43 44 44 45 44 42 41 40 38 37 37 36 36 37 36 36 37 38 37 34 31 28 28 30 31 31
0 1 1 1 3 4 4 3 3 3 5 5 7 5 4 6 6 5 6 8 8 10 12 12 11 12 12 14 14 13 13 15 18 20 19 19 21 23 24 26 28 30 32 33 32 32 32 32 33 34 34 34 35 35 37 38 40 41 43 43 43 44 44 44 42 40 40 39 37 35 34 34 35 36 36 35 36 36 37 38 37 33 30 30 31 33
Wind_Direction
95 50 275 220 227 227 214 198 210 223 206 230 226 213 248 251 272 273 275 308 86 152 269 251 274 301 311 337 349 352 39 53 55 62 61 62 67 68 70 68 66 67 60 58 61 65 67 66 64 61 57 55 54 49 45 45 42 36 30 24 19 8 358 354 349 344 338 329 320 310 303 300 301 300 297 294 292 291 290 290 289 287 287 285 283 281
73 106 243 226 224 219 217 213 206 219 216 233 235 249 276 242 258 268 235 317 357 126 293 35 37 341 348 3 2 25 53 42 42 66 67 70 72 70 73 71 68 67 59 58 59 65 72 70 65 60 57 56 54 51 49 49 47 44 42 37 31 21 14 7 357 349 343 339 336 327 320 316 312 308 304 301 300 298 296 295 293 292 291 288 285 283
30 245 249 233 209 196 217 202 142 165 215 214 206 243 279 260 273 292 308 328 7 97 280 23 47 17 18 30 28 35 56 49 41 64 68 73 77 72 75 77 75 71 60 57 57 63 70 70 63 57 55 53 49 48 48 47 47 46 45 40 34 27 22 17 10 1 352 346 342 337 333 330 324 320 316 311 307 304 301 299 299 298 296 293 289 286
245 253 255 212 147 159 250 22 92 40 348 208 185 186 263 283 309 286 315 328 340 85 257 28 52 37 19 42 45 28 47 63 53 63 63 65 76 76 77 78 77 78 71 65 58 60 68 68 60 54 51 46 41 42 43 42 42 40 39 33 26 20 16 13 9 3 357 351 348 345 342 338 333 330 328 323 318 314 310 309 309 309 308 304 298 293
234 253 273 94 89 138 230 346 74 114 320 273 211 193 235 266 224 220 284 325 336 353 5 66 54 32 19 51 53 16 35 56 50 62 61 52 64 73 72 67 69 79 81 80 70 58 65 65 56 47 41 32 27 33 36 37 40 36 33 27 18 13 8 5 2 357 351 347 345 345 343 343 340 336 334 329 325 322 318 315 316 316 316 313 307 301
260 286 42 90 64 75 133 303 230 181 267 306 240 201 198 200 204 280 343 2 19 357 318 66 53 334 5 55 53 15 44 50 37 57 62 53 57 65 68 64 63 65 63 75 74 60 58 54 44 32 23 15 6 4 18 28 30 29 24 15 9 6 1 357 354 351 345 339 339 339 337 338 333 328 327 325 322 320 317 315 314 315 315 315 313 308
279 353 48 103 94 70 74 279 246 165 125 312 254 179 149 129 44 356 13 35 52 246 267 70 113 227 342 56 49 40 68 59 42 55 59 59 62 67 73 70 67 61 53 52 48 45 44 40 33 24 16 8 357 347 354 22 23 20 14 7 3 1 357 352 348 347 342 334 334 333 328 324 318 313 315 319 319 316 314 311 309 310 311 313 313 312
240 23 33 68 82 70 54 284 231 138 117 250 243 117 107 76 324 298 99 119 228 242 316 5 132 165 112 118 146 69 78 64 53 60 57 62 70 70 71 69 69 63 55 49 40 39 38 33 26 17 9 5 2 356 356 20 19 13 8 4 1 359 357 354 349 348 345 335 328 326 320 314 310 307 309 314 314 312 311 307 305 306 306 307 309 310
303 32 31 92 66 27 258 235 197 133 109 251 217 129 124 241 217 175 135 176 249 40 327 318 106 127 207 170 199 48 77 73 70 80 80 78 74 71 66 56 57 49 40 46 45 36 30 24 17 13 12 16 22 27 30 27 21 15 13 11 7 6 5 3 359 355 352 344 335 330 324 317 315 314 314 314 309 307 307 303 302 303 303 304 303 303
0 239 194 134 99 267 243 240 195 151 265 261 170 130 42 51 97 113 120 142 41 47 260 281 43 126 193 174 248 35 82 105 116 103 95 81 68 63 49 36 42 42 35 39 38 30 20 16 17 22 27 29 31 33 31 25 21 19 17 14 11 11 8 5 2 357 354 350 344 339 333 325 321 320 319 316 310 306 304 300 298 299 299 299 299 299
318 290 193 111 172 213 225 258 195 173 256 343 84 44 25 36 45 49 72 100 60 350 252 254 230 143 109 55 283 302 151 162 152 115 77 64 64 58 42 32 40 43 39 36 31 22 15 17 26 31 32 28 25 25 23 20 18 17 15 12 10 8 5 1 358 355 352 349 345 342 338 331 325 322 319 315 311 307 302 298 296 296 294 293 295 297
352 5 324 302 279 165 82 319 346 2 2 63 66 38 21 356 16 26 357 43 80 267 265 254 206 132 107 25 307 303 273 190 164 135 114 92 74 59 42 36 42 45 39 31 22 17 17 23 31 32 27 24 21 19 17 15 14 15 14 12 8 4 0 357 354 352 349 347 346 343 339 334 329 325 320 315 311 307 301 296 295 294 292 291 292 294
1 318 291 309 310 84 80 354 341 2 28 52 56 58 44 343 5 7 317 353 190 238 259 291 63 91 85 252 256 308 20 10 37 104 110 93 71 53 38 34 41 43 32 21 16 19 24 28 29 26 22 20 18 16 14 13 13 13 10 6 2 358 355 353 351 349 347 345 343 341 338 335 331 327 323 318 314 310 304 298 294 293 292 292 292 292
339 304 313 355 324 28 88 68 338 331 359 13 57 97 84 58 41 312 280 310 291 260 260 322 35 81 88 230 217 44 36 31 42 60 78 77 68 52 36 35 40 35 24 14 16 27 30 28 24 21 19 16 14 13 12 9 8 6 1 359 357 354 352 352 350 348 345 341 339 338 335 332 329 326 323 319 315 311 307 301 295 292 292 291 291 291
10 298 304 65 300 13 61 131 165 175 326 304 194 134 123 146 145 238 241 207 257 279 291 324 40 135 160 106 87 59 45 49 58 61 64 63 59 44 30 33 37 25 11 11 24 32 28 23 22 20 16 14 11 9 8 5 3 0 358 357 355 352 350 349 347 344 340 338 338 338 336 334 331 328 325 321 317 313 309 303 297 294 293 293 294 294
122 255 265 305 305 73 62 232 138 94 18 263 170 90 106 183 150 174 202 181 189 300 317 339 58 145 133 90 62 49 47 40 39 38 40 42 38 33 25 25 29 12 0 16 33 29 22 21 22 18 13 11 8 7 7 5 2 359 356 354 351 348 347 346 345 344 343 343 342 341 340 338 336 334 330 326 322 317 312 306 301 298 296 295 295 295
42 276 285 344 358 77 144 233 36 70 240 245 77 86 226 177 125 116 286 0 77 72 288 126 113 122 112 102 63 47 47 35 31 30 30 34 32 29 24 21 16 357 357 28 37 24 20 21 18 13 10 9 8 8 7 4 1 357 354 352 349 348 350 351 350 348 346 345 342 339 338 336 335 333 330 327 324 322 319 314 311 309 308 306 304 303
134 275 295 16 63 297 185 151 6 346 154 89 141 224 226 84 93 100 25 357 36 71 266 91 131 172 163 132 59 40 41 30 28 26 20 26 29 23 22 18 2 350 7 37 34 25 21 18 12 9 10 11 10 7 3 360 358 357 357 355 352 352 352 349 346 345 343 342 339 336 334 334 333 331 327 323 321 322 323 323 321 320 318 316 313 311
113 288 299 299 165 305 346 67 353 326 352 113 194 220 91 81 337 20 73 1 0 264 278 340 95 156 167 162 61 43 37 25 19 15 12 15 17 13 14 8 353 352 24 35 26 22 17 10 8 10 11 10 6 3 1 359 358 359 359 355 351 349 345 341 340 341 340 338 337 335 334 334 332 328 325 321 322 324 325 324 323 321 318 315 313 310
56 99 286 281 229 316 0 45 0 319 335 21 21 342 24 138 170 196 137 163 173 204 231 315 349 105 61 13 92 69 46 30 18 10 8 7 7 8 9 359 349 358 28 26 17 13 7 6 9 12 10 5 2 2 1 358 357 356 354 349 346 342 339 338 339 339 337 336 337 337 334 332 328 325 323 324 327 328 327 326 325 324 321 318 314 311
4 110 255 289 331 358 356 347 195 199 321 4 28 359 339 332 286 219 339 116 129 158 180 224 280 149 66 37 88 80 52 38 23 9 1 355 360 9 5 351 344 5 28 17 8 3 1 6 9 8 4 0 359 360 358 354 352 351 349 346 343 340 340 339 338 337 336 337 338 335 331 328 326 324 323 326 328 328 327 327 325 323 321 316 314 313
358 127 231 292 332 337 263 256 195 172 190 162 123 72 164 268 337 55 304 323 78 146 172 168 224 184 80 43 67 67 53 41 22 4 352 348 357 8 357 342 342 16 28 8 0 2 5 8 5 0 358 357 357 356 352 349 348 348 347 344 341 340 340 338 336 336 337 337 334 331 329 327 325 323 324 328 330 328 326 323 321 320 316 311 309 311
73 98 85 278 273 267 269 270 121 136 180 130 96 58 110 101 82 121 210 278 334 328 180 144 200 182 96 58 58 51 49 48 20 357 350 350 360 1 346 338 356 19 14 2 1 5 7 3 356 353 352 353 354 351 347 346 347 347 344 342 341 339 338 336 335 336 336 334 331 329 328 326 324 325 329 332 329 326 323 320 317 316 312 307 306 308
0 76 33 295 293 311 312 337 51 55 57 68 27 25 72 52 81 139 171 200 221 313 0 113 271 209 144 82 66 43 19 25 11 355 351 349 353 351 341 348 12 9 3 3 2 3 1 353 348 348 350 352 351 346 345 346 346 345 343 342 341 338 336 337 337 336 334 333 330 329 327 327 329 332 332 330 326 322 320 317 315 314 310 303 302 307
320 116 70 352 343 348 348 355 355 350 24 63 13 2 27 42 43 75 99 75 100 300 78 129 252 227 145 90 64 38 357 348 357 352 347 349 351 348 352 9 7 0 359 357 356 356 352 345 343 349 353 351 347 344 346 347 345 344 343 342 341 338 336 337 337 335 334 332 329 328 329 333 336 334 330 326 323 321 319 317 316 314 308 300 303 311
265 192 109 99 120 300 299 298 287 294 340 37 33 5 7 29 25 353 54 66 96 307 31 127 230 236 130 53 3 2 353 344 350 354 353 1 356 347 357 9 357 355 354 348 351 350 342 341 349 356 355 349 345 346 347 346 344 343 342 340 338 336 336 337 336 335 334 331 328 329 335 337 335 332 327 324 323 321 320 319 317 313 307 308 314 315
96 102 110 145 170 198 221 247 261 261 7 37 32 13 9 8 15 63 86 63 168 343 340 221 221 296 320 358 352 354 357 352 349 350 351 353 349 343 355 359 347 349 348 346 350 344 341 350 358 357 351 345 345 347 346 344 343 342 340 337 336 337 337 336 335 334 333 330 330 335 337 334 330 327 324 322 321 320 320 320 320 318 318 323 324 319
72 346 329 146 197 233 241 265 9 58 63 70 60 32 24 19 32 68 86 288 110 77 301 276 348 345 329 10 4 351 350 349 342 343 343 339 338 342 351 346 344 347 347 349 349 345 350 358 355 350 346 344 345 345 343 342 341 340 338 336 336 338 337 336 335 334 332 330 330 332 330 328 325 323 321 321 319 317 318 322 326 327 327 328 326 323
99 292 296 113 275 298 313 71 91 87 79 73 72 56 41 39 48 72 103 192 94 127 245 307 351 338 324 11 1 348 343 339 335 336 334 330 333 346 350 345 347 347 347 348 348 352 1 355 349 347 344 342 343 342 341 340 340 339 338 337 338 337 336 336 334 332 331 330 329 327 325 324 324 322 320 319 318 318 322 326 327 325 323 321 320 317
116 288 300 82 332 348 18 75 100 99 94 71 61 57 51 56 67 79 94 318 40 177 230 5 344 297 78 16 350 342 336 329 329 331 329 331 341 355 352 349 349 347 346 349 350 356 357 349 346 344 341 340 342 342 341 340 340 340 338 337 337 336 335 335 332 330 329 329 327 325 324 324 323 321 318 318 320 323 325 324 321 318 316 314 312 310
49 328 322 74 32 357 29 67 80 95 102 83 56 39 41 46 47 46 22 354 14 345 345 5 330 279 46 10 339 327 331 333 337 334 329 337 357 358 351 351 349 345 346 348 348 350 350 346 344 342 341 342 342 342 342 341 340 338 337 336 335 334 334 333 331 329 328 327 326 325 324 324 322 320 320 323 325 324 321 319 316 314 312 309 307 306
33 357 350 57 50 318 15 93 101 104 95 76 42 16 26 40 24 357 12 29 20 316 329 349 334 310 335 342 327 323 337 342 342 334 330 347 9 357 352 352 346 343 346 346 346 349 348 345 343 342 342 343 342 342 342 341 339 337 335 334 332 332 332 332 330 328 326 325 325 325 325 324 323 323 324 324 323 320 317 316 313 311 309 307 306 308
63 55 2 48 67 283 287 150 159 112 48 13 1 350 351 66 31 351 23 58 31 44 13 342 316 316 330 335 331 333 342 349 343 331 331 354 1 354 357 353 343 342 347 345 344 347 345 341 340 340 341 342 341 340 340 339 336 334 333 332 330 331 331 331 330 328 325 324 324 324 325 325 323 323 322 320 319 317 316 315 313 311 311 310 311 314
48 77 80 68 94 272 291 331 101 68 338 248 245 8 332 102 38 359 335 94 47 58 68 319 315 331 339 339 334 330 335 343 332 320 333 21 5 357 357 348 340 344 345 341 343 343 340 337 338 339 340 340 339 337 337 336 334 332 331 330 329 330 330 330 329 327 324 323 324 325 326 325 323 321 319 318 318 318 317 316 315 314 313 312 312 311
27 44 350 60 78 268 309 31 43 330 251 207 142 24 359 97 34 360 353 124 46 26 19 344 336 337 335 329 327 323 323 329 321 306 346 37 14 3 350 336 339 348 341 339 343 339 336 337 339 339 339 339 338 336 335 335 334 332 330 330 330 329 330 329 327 325 324 323 325 327 326 324 323 320 319 319 319 318 318 317 315 313 312 310 309 306
60 59 61 62 49 334 10 36 0 242 245 219 22 11 7 12 4 358 8 148 8 10 15 349 330 331 333 327 329 329 322 323 314 282 59 31 13 1 343 334 344 345 339 342 342 337 336 338 339 339 338 337 336 336 335 335 335 333 331 331 331 330 330 329 326 325 325 325 326 327 326 324 322 320 319 319 318 317 317 316 313 312 311 309 307 305
95 97 72 47 48 76 65 310 283 263 354 4 4 354 349 336 336 338 313 240 59 43 19 348 331 335 339 334 337 337 326 322 311 235 51 23 4 350 342 342 343 339 338 341 338 334 335 337 338 339 338 336 335 335 335 335 335 334 332 331 331 330 329 328 326 326 326 326 326 325 324 322 321 319 318 318 317 316 316 315 313 311 310 308 306 305
58 70 80 74 42 76 82 356 351 336 286 298 338 323 317 298 293 298 269 246 57 42 14 354 342 339 340 339 340 339 331 327 318 311 15 6 352 347 345 343 342 339 339 338 335 335 338 338 338 339 337 336 335 335 336 336 335 335 332 330 331 330 328 327 327 328 327 325 324 323 322 321 320 318 317 317 316 315 314 314 312 311 310 307 304 303
39 42 70 75 40 43 77 69 307 254 223 233 317 316 314 296 294 315 261 257 16 21 7 359 348 341 340 338 337 342 342 331 318 320 345 348 345 347 345 340 341 340 338 337 335 336 338 339 339 338 337 336 335 335 336 335 335 334 331 329 329 328 327 327 328 328 327 324 323 321 321 321 320 318 317 316 315 314 313 313 311 310 309 307 304 303
23 13 34 51 34 8 81 84 283 236 178 353 329 319 308 296 321 31 332 276 350 7 360 358 347 337 337 335 335 344 346 326 312 320 335 338 337 341 341 338 340 340 338 336 335 337 338 339 340 338 337 336 335 335 335 335 335 334 331 329 328 327 327 328 327 326 325 323 322 321 321 321 320 319 317 316 314 313 313 312 311 309 308 307 305 304
10 356 31 62 42 357 49 297 298 263 158 341 328 319 312 316 14 59 274 286 343 351 350 353 338 329 336 341 338 335 327 318 312 316 329 334 333 334 335 335 337 339 337 335 335 338 339 339 339 337 335 335 334 334 335 335 334 333 331 330 329 328 329 329 327 326 325 322 322 322 322 322 321 320 319 317 315 314 313 313 311 309 308 307 306 304
9 348 1 48 27 341 20 268 299 283 144 339 325 322 343 357 358 282 293 322 338 336 337 337 329 334 346 342 333 324 317 318 318 320 329 334 331 327 329 334 338 338 336 335 337 340 340 338 337 335 334 335 335 335 336 335 333 331 331 330 329 330 330 329 328 327 325 323 323 322 323 323 323 322 320 319 318 315 314 314 313 311 310 309 307 305
26 350 327 317 292 345 9 12 327 287 302 345 338 341 28 38 306 304 323 325 321 322 329 330 337 353 348 332 326 323 317 317 324 329 331 331 327 325 329 336 338 335 334 336 338 340 340 337 334 333 333 334 336 336 337 336 332 331 332 330 330 331 331 330 330 328 326 325 325 324 324 325 324 323 321 320 319 317 315 315 315 314 313 312 309 306
73 101 286 279 200 83 23 323 283 249 317 357 12 32 22 352 317 318 316 309 315 333 336 336 347 352 341 330 328 326 322 324 332 335 332 328 326 328 333 337 336 332 332 335 337 339 339 336 332 331 331 333 336 337 337 336 333 331 331 331 332 333 332 331 331 329 328 327 326 326 326 326 325 324 323 322 322 320 318 318 318 317 316 315 312 308
82 154 218 238 242 175 208 239 279 57 20 21 76 106 25 339 312 305 312 320 338 353 355 348 339 339 344 340 331 327 328 332 334 335 332 326 326 331 335 334 331 330 331 333 335 337 337 334 331 330 330 332 336 337 337 338 335 332 332 333 334 334 333 332 332 330 329 328 327 328 328 327 327 325 325 326 326 324 321 321 320 319 318 317 314 309
258 322 244 202 293 291 239 243 334 0 357 33 117 121 44 52 125 350 353 351 358 8 2 348 337 338 345 340 330 327 330 332 333 333 331 327 327 331 331 329 329 331 331 333 335 336 336 333 331 331 331 333 335 336 337 338 336 334 333 334 335 335 334 333 332 330 330 329 328 329 329 328 327 327 328 329 329 328 326 324 322 321 319 317 315 311
311 4 42 57 331 315 285 337 6 343 337 8 102 43 11 39 32 6 12 13 8 1 350 349 348 341 336 333 329 327 329 334 335 333 331 330 328 329 328 329 331 332 332 333 335 336 335 333 332 332 332 333 334 336 337 337 337 336 336 336 336 336 335 334 332 331 330 329 329 330 331 329 327 326 328 330 331 330 330 329 326 323 320 319 316 313
326 28 46 6 322 287 272 299 348 336 320 343 88 21 358 18 16 14 28 19 1 352 350 356 353 339 330 333 335 331 332 338 337 332 331 329 327 326 328 330 332 332 331 333 334 335 334 332 331 332 332 331 333 334 335 336 337 338 339 338 338 337 336 335 334 331 330 330 330 331 330 329 327 327 329 330 330 331 331 330 328 325 322 320 318 315
338 18 54 317 307 282 280 316 353 336 303 295 55 10 357 18 12 10 21 10 357 353 354 354 348 338 334 336 336 334 335 336 336 336 332 328 327 329 330 331 331 330 330 331 333 334 333 332 332 333 332 331 333 334 334 336 337 339 340 339 339 339 339 337 334 332 331 332 332 331 330 330 330 330 330 329 330 331 332 331 329 327 325 324 324 322
0 9 69 2 319 287 297 345 4 331 293 310 356 354 11 33 17 8 12 3 356 358 356 346 339 341 342 339 337 338 338 336 338 337 332 327 329 331 331 331 330 329 329 331 332 332 332 333 333 333 331 331 333 334 334 335 337 339 341 341 340 341 340 338 335 333 332 333 333 332 331 331 331 332 332 332 331 332 332 333 334 334 332 332 332 331
102 234 276 318 272 274 306 354 4 312 289 308 334 352 35 33 19 14 9 359 357 1 357 347 338 340 341 339 340 345 344 340 338 336 331 328 329 330 331 331 329 327 328 330 332 332 333 335 335 333 332 332 332 333 333 335 337 339 341 342 342 342 341 340 336 333 332 332 332 331 331 330 331 332 333 333 334 334 333 334 336 339 341 342 341 340